Time,TemperatureF,DewpointF,PressureIn,WindDirection,WindDirectionDegrees,WindSpeedMPH,WindSpeedGustMPH,Humidity,HourlyPrecipIn,Conditions,Clouds,dailyrainin,SoftwareType,DateUTC
2013-06-03 00:02:00,51.0,45.0,30.05,East,79,1.0,5.0,80,0.00,,,0.17,,2013-06-03 08:02:00,
2013-06-03 00:11:00,51.0,45.0,30.05,East,79,1.0,5.0,80,0.00,,,0.17,,2013-06-03 08:11:00,
2013-06-03 00:21:00,51.0,45.0,30.05,ENE,71,1.0,3.0,80,0.00,,,0.17,,2013-06-03 08:21:00,
2013-06-03 00:32:00,50.0,44.0,30.05,ENE,71,0.0,1.0,81,0.00,,,0.15,,2013-06-03 08:32:00,
2013-06-03 00:42:00,50.0,44.0,30.05,ENE,71,0.0,1.0,81,0.00,,,0.15,,2013-06-03 08:42:00,
2013-06-03 00:52:00,50.0,44.0,30.04,SE,126,0.0,3.0,81,0.00,,,0.13,,2013-06-03 08:52:00,
2013-06-03 01:02:00,49.0,44.0,30.04,SE,143,0.0,2.0,82,0.00,,,0.11,,2013-06-03 09:02:00,
2013-06-03 01:11:00,49.0,44.0,30.04,SE,143,0.0,2.0,82,0.00,,,0.11,,2013-06-03 09:11:00,
2013-06-03 01:22:00,48.0,43.0,30.04,SE,143,0.0,2.0,83,0.00,,,0.11,,2013-06-03 09:22:00,
2013-06-03 01:33:00,48.0,43.0,30.04,SE,131,0.0,2.0,82,0.00,,,0.05,,2013-06-03 09:33:00,
2013-06-03 01:42:00,48.0,43.0,30.04,SE,131,0.0,2.0,82,0.00,,,0.05,,2013-06-03 09:42:00,
2013-06-03 01:52:00,48.0,42.0,30.04,SSW,198,1.0,3.0,81,0.00,,,0.04,,2013-06-03 09:52:00,
2013-06-03 02:02:00,47.0,41.0,30.03,SE,143,0.0,3.0,79,0.00,,,0.04,,2013-06-03 10:02:00,
2013-06-03 02:12:00,47.0,41.0,30.03,SE,143,0.0,3.0,79,0.00,,,0.04,,2013-06-03 10:12:00,
2013-06-03 02:22:00,47.0,41.0,30.03,SSE,150,0.0,3.0,80,0.00,,,0.03,,2013-06-03 10:22:00,
2013-06-03 02:33:00,46.0,41.0,30.03,SSE,151,0.0,2.0,81,0.00,,,0.00,,2013-06-03 10:33:00,
2013-06-03 02:42:00,46.0,41.0,30.03,SSE,151,0.0,2.0,81,0.00,,,0.00,,2013-06-03 10:42:00,
2013-06-03 02:52:00,46.0,41.0,30.03,SE,133,0.0,3.0,81,0.00,,,0.00,,2013-06-03 10:52:00,
2013-06-03 03:02:00,46.0,41.0,30.03,ESE,123,0.0,1.0,82,0.00,,,0.00,,2013-06-03 11:02:00,
2013-06-03 03:12:00,46.0,41.0,30.03,ESE,123,0.0,1.0,82,0.00,,,0.00,,2013-06-03 11:12:00,
2013-06-03 03:22:00,45.0,40.0,30.02,ESE,123,0.0,1.0,83,0.00,,,0.00,,2013-06-03 11:22:00,
2013-06-03 03:32:00,45.0,40.0,30.02,ESE,123,0.0,1.0,84,0.00,,,0.00,,2013-06-03 11:32:00,
2013-06-03 03:42:00,45.0,40.0,30.02,ESE,123,0.0,1.0,84,0.00,,,0.00,,2013-06-03 11:42:00,
2013-06-03 03:52:00,45.0,41.0,30.02,ESE,123,0.0,0.0,85,0.00,,,0.00,,2013-06-03 11:52:00,
2013-06-03 04:02:00,45.0,41.0,30.01,ESE,123,0.0,1.0,85,0.00,,,0.00,,2013-06-03 12:02:00,
2013-06-03 04:12:00,45.0,41.0,30.01,ESE,123,0.0,1.0,85,0.00,,,0.00,,2013-06-03 12:12:00,
2013-06-03 04:21:00,45.0,40.0,30.01,ESE,123,0.0,1.0,84,0.00,,,0.00,,2013-06-03 12:21:00,
2013-06-03 04:32:00,45.0,40.0,30.00,East,94,1.0,3.0,84,0.00,,,0.00,,2013-06-03 12:32:00,
2013-06-03 04:42:00,45.0,40.0,30.00,East,94,1.0,3.0,84,0.00,,,0.00,,2013-06-03 12:42:00,
2013-06-03 04:52:00,45.0,40.0,30.00,ESE,105,1.0,3.0,83,0.00,,,0.00,,2013-06-03 12:52:00,
2013-06-03 05:02:00,45.0,40.0,30.00,ESE,113,0.0,2.0,83,0.00,,,0.00,,2013-06-03 13:02:00,
2013-06-03 05:11:00,45.0,40.0,30.00,ESE,113,0.0,2.0,83,0.00,,,0.00,,2013-06-03 13:11:00,
2013-06-03 05:22:00,45.0,40.0,29.99,ESE,113,0.0,1.0,84,0.00,,,0.00,,2013-06-03 13:22:00,
2013-06-03 05:32:00,45.0,41.0,29.98,ESE,113,0.0,2.0,85,0.00,,,0.00,,2013-06-03 13:32:00,
2013-06-03 05:42:00,45.0,41.0,29.98,ESE,113,0.0,2.0,85,0.00,,,0.00,,2013-06-03 13:42:00,
2013-06-03 05:52:00,45.0,41.0,29.98,ENE,66,0.0,3.0,86,0.00,,,0.00,,2013-06-03 13:52:00,
2013-06-03 06:02:00,45.0,41.0,29.98,East,86,1.0,3.0,85,0.00,,,0.00,,2013-06-03 14:02:00,
2013-06-03 06:12:00,45.0,41.0,29.98,East,86,1.0,3.0,85,0.00,,,0.00,,2013-06-03 14:12:00,
2013-06-03 06:22:00,46.0,41.0,29.98,ENE,75,1.0,5.0,84,0.00,,,0.00,,2013-06-03 14:22:00,
2013-06-03 06:32:00,46.0,41.0,29.97,East,82,0.0,3.0,84,0.00,,,0.00,,2013-06-03 14:32:00,
2013-06-03 06:42:00,46.0,41.0,29.97,East,82,0.0,3.0,84,0.00,,,0.00,,2013-06-03 14:42:00,
2013-06-03 06:52:00,46.0,41.0,29.97,ENE,77,1.0,3.0,84,0.00,,,0.00,,2013-06-03 14:52:00,
2013-06-03 07:02:00,46.0,41.0,29.96,NE,51,1.0,3.0,83,0.00,,,0.00,,2013-06-03 15:02:00,
2013-06-03 07:12:00,46.0,41.0,29.96,NE,51,1.0,3.0,83,0.00,,,0.00,,2013-06-03 15:12:00,
2013-06-03 07:22:00,46.0,41.0,29.96,ENE,72,2.0,6.0,83,0.00,,,0.00,,2013-06-03 15:22:00,
2013-06-03 07:33:00,47.0,42.0,29.96,ENE,57,1.0,3.0,83,0.00,,,0.00,,2013-06-03 15:33:00,
2013-06-03 07:43:00,47.0,42.0,29.96,ENE,57,1.0,3.0,83,0.00,,,0.00,,2013-06-03 15:43:00,
2013-06-03 07:53:00,47.0,42.0,29.96,ENE,70,2.0,5.0,82,0.00,,,0.00,,2013-06-03 15:53:00,
2013-06-03 08:03:00,48.0,42.0,29.96,ENE,66,2.0,6.0,81,0.00,,,0.00,,2013-06-03 16:03:00,
2013-06-03 08:12:00,48.0,42.0,29.96,ENE,66,2.0,6.0,81,0.00,,,0.00,,2013-06-03 16:12:00,
2013-06-03 08:22:00,49.0,43.0,29.95,NE,46,2.0,5.0,79,0.00,,,0.00,,2013-06-03 16:22:00,
2013-06-03 08:32:00,50.0,43.0,29.94,East,90,2.0,7.0,76,0.00,,,0.00,,2013-06-03 16:32:00,
2013-06-03 08:42:00,50.0,42.0,29.94,ENE,72,4.0,10.0,75,0.00,,,0.00,,2013-06-03 16:42:00,
2013-06-03 08:53:00,50.0,42.0,29.94,ENE,72,4.0,10.0,75,0.00,,,0.00,,2013-06-03 16:53:00,
2013-06-03 09:02:00,51.0,41.0,29.94,East,89,5.0,9.0,69,0.00,,,0.00,,2013-06-03 17:02:00,
2013-06-03 09:12:00,51.0,41.0,29.94,East,89,5.0,9.0,69,0.00,,,0.00,,2013-06-03 17:12:00,
2013-06-03 09:22:00,52.0,41.0,29.93,East,80,4.0,8.0,67,0.00,,,0.00,,2013-06-03 17:22:00,
2013-06-03 09:33:00,53.0,41.0,29.93,East,80,5.0,9.0,64,0.00,,,0.00,,2013-06-03 17:33:00,
2013-06-03 09:42:00,53.0,41.0,29.93,East,80,5.0,9.0,64,0.00,,,0.00,,2013-06-03 17:42:00,
2013-06-03 09:52:00,54.0,42.0,29.93,East,86,3.0,12.0,63,0.00,,,0.00,,2013-06-03 17:52:00,
2013-06-03 10:02:00,53.0,41.0,29.92,NE,55,2.0,8.0,64,0.00,,,0.00,,2013-06-03 18:02:00,
2013-06-03 10:12:00,53.0,41.0,29.92,East,90,5.0,9.0,63,0.00,,,0.00,,2013-06-03 18:12:00,
2013-06-03 10:22:00,53.0,41.0,29.92,East,90,5.0,9.0,63,0.00,,,0.00,,2013-06-03 18:22:00,
2013-06-03 10:32:00,54.0,43.0,29.91,East,88,4.0,10.0,65,0.00,,,0.00,,2013-06-03 18:32:00,
2013-06-03 10:42:00,54.0,43.0,29.91,East,88,4.0,10.0,65,0.00,,,0.00,,2013-06-03 18:42:00,
2013-06-03 10:52:00,54.0,43.0,29.91,East,89,6.0,9.0,65,0.00,,,0.00,,2013-06-03 18:52:00,
2013-06-03 11:03:00,53.0,41.0,29.91,East,96,3.0,8.0,64,0.00,,,0.00,,2013-06-03 19:03:00,
2013-06-03 11:12:00,53.0,41.0,29.91,East,96,3.0,8.0,64,0.00,,,0.00,,2013-06-03 19:12:00,
2013-06-03 11:22:00,54.0,42.0,29.91,ESE,110,5.0,9.0,63,0.00,,,0.00,,2013-06-03 19:22:00,
2013-06-03 11:32:00,55.0,42.0,29.90,NE,55,5.0,9.0,61,0.00,,,0.00,,2013-06-03 19:32:00,
2013-06-03 11:42:00,55.0,42.0,29.90,NE,55,5.0,9.0,61,0.00,,,0.00,,2013-06-03 19:42:00,
2013-06-03 11:52:00,54.0,41.0,29.89,ESE,110,3.0,12.0,61,0.00,,,0.00,,2013-06-03 19:52:00,
2013-06-03 12:02:00,55.0,41.0,29.89,ENE,77,5.0,12.0,60,0.00,,,0.00,,2013-06-03 20:02:00,
2013-06-03 12:12:00,55.0,41.0,29.89,ENE,77,5.0,12.0,60,0.00,,,0.00,,2013-06-03 20:12:00,
2013-06-03 12:22:00,56.0,42.0,29.89,NNE,31,3.0,12.0,60,0.00,,,0.00,,2013-06-03 20:22:00,
2013-06-03 12:32:00,56.0,42.0,29.88,NE,56,3.0,12.0,60,0.00,,,0.00,,2013-06-03 20:32:00,
2013-06-03 12:42:00,56.0,42.0,29.88,NE,56,3.0,12.0,60,0.00,,,0.00,,2013-06-03 20:42:00,
2013-06-03 12:52:00,56.0,41.0,29.88,ESE,123,2.0,10.0,58,0.00,,,0.00,,2013-06-03 20:52:00,
2013-06-03 13:02:00,56.0,43.0,29.88,NNE,18,2.0,6.0,62,0.00,,,0.00,,2013-06-03 21:02:00,
2013-06-03 13:12:00,56.0,43.0,29.88,NNE,18,2.0,6.0,62,0.00,,,0.00,,2013-06-03 21:12:00,
2013-06-03 13:22:00,56.0,44.0,29.88,East,101,5.0,12.0,63,0.00,,,0.00,,2013-06-03 21:22:00,
2013-06-03 13:32:00,54.0,44.0,29.87,NNE,13,5.0,13.0,69,0.00,,,0.00,,2013-06-03 21:32:00,
2013-06-03 13:43:00,54.0,44.0,29.87,NNE,13,5.0,13.0,69,0.00,,,0.00,,2013-06-03 21:43:00,
2013-06-03 13:52:00,54.0,45.0,29.87,NNE,18,5.0,12.0,71,0.00,,,0.00,,2013-06-03 21:52:00,
2013-06-03 14:02:00,54.0,46.0,29.87,ENE,78,2.0,3.0,74,0.00,,,0.00,,2013-06-03 22:02:00,
2013-06-03 14:12:00,54.0,46.0,29.87,ENE,78,2.0,3.0,74,0.00,,,0.00,,2013-06-03 22:12:00,
2013-06-03 14:22:00,54.0,46.0,29.87,NE,39,3.0,6.0,74,0.00,,,0.00,,2013-06-03 22:22:00,
2013-06-03 14:32:00,55.0,46.0,29.86,NE,53,2.0,8.0,71,0.00,,,0.00,,2013-06-03 22:32:00,
2013-06-03 14:42:00,55.0,46.0,29.86,NE,53,2.0,8.0,71,0.00,,,0.00,,2013-06-03 22:42:00,
2013-06-03 14:52:00,55.0,45.0,29.86,NNE,26,3.0,8.0,70,0.00,,,0.00,,2013-06-03 22:52:00,
2013-06-03 15:02:00,55.0,46.0,29.85,NNE,33,3.0,10.0,71,0.00,,,0.00,,2013-06-03 23:02:00,
2013-06-03 15:12:00,55.0,46.0,29.85,NNE,33,3.0,10.0,71,0.00,,,0.00,,2013-06-03 23:12:00,
2013-06-03 15:22:00,55.0,45.0,29.85,NNE,27,3.0,12.0,70,0.00,,,0.00,,2013-06-03 23:22:00,
2013-06-03 15:32:00,55.0,45.0,29.84,NNE,19,5.0,13.0,70,0.00,,,0.00,,2013-06-03 23:32:00,
2013-06-03 15:42:00,55.0,45.0,29.84,NNE,19,5.0,13.0,70,0.00,,,0.00,,2013-06-03 23:42:00,
2013-06-03 15:52:00,55.0,44.0,29.84,North,2,7.0,12.0,67,0.00,,,0.00,,2013-06-03 23:52:00,
2013-06-03 16:02:00,55.0,44.0,29.83,ENE,74,6.0,13.0,67,0.00,,,0.00,,2013-06-04 00:02:00,
2013-06-03 16:12:00,55.0,44.0,29.83,ENE,74,6.0,13.0,67,0.00,,,0.00,,2013-06-04 00:12:00,
2013-06-03 16:22:00,55.0,44.0,29.83,NNE,28,6.0,14.0,67,0.00,,,0.00,,2013-06-04 00:22:00,
2013-06-03 16:32:00,56.0,45.0,29.83,NE,51,6.0,13.0,66,0.01,,,0.01,,2013-06-04 00:32:00,
2013-06-03 16:42:00,56.0,45.0,29.83,NE,51,6.0,13.0,66,0.01,,,0.01,,2013-06-04 00:42:00,
2013-06-03 16:52:00,56.0,44.0,29.83,NE,36,5.0,12.0,65,0.01,,,0.01,,2013-06-04 00:52:00,
2013-06-03 17:02:00,56.0,46.0,29.82,NNE,26,3.0,8.0,69,0.01,,,0.01,,2013-06-04 01:02:00,
2013-06-03 17:12:00,56.0,46.0,29.82,NNE,26,3.0,8.0,69,0.01,,,0.01,,2013-06-04 01:12:00,
2013-06-03 17:22:00,57.0,45.0,29.81,NE,39,6.0,12.0,63,0.01,,,0.01,,2013-06-04 01:22:00,
2013-06-03 17:32:00,57.0,45.0,29.80,NE,49,5.0,14.0,63,0.01,,,0.02,,2013-06-04 01:32:00,
2013-06-03 17:42:00,57.0,45.0,29.80,NE,49,5.0,14.0,63,0.01,,,0.02,,2013-06-04 01:42:00,
2013-06-03 17:52:00,57.0,44.0,29.80,East,91,4.0,10.0,61,0.01,,,0.02,,2013-06-04 01:52:00,
2013-06-03 18:02:00,57.0,43.0,29.79,ENE,72,5.0,14.0,60,0.01,,,0.02,,2013-06-04 02:02:00,
2013-06-03 18:12:00,57.0,43.0,29.79,ENE,72,5.0,14.0,60,0.01,,,0.02,,2013-06-04 02:12:00,
2013-06-03 18:21:00,57.0,43.0,29.79,NNE,25,3.0,12.0,60,0.01,,,0.02,,2013-06-04 02:21:00,
2013-06-03 18:32:00,57.0,42.0,29.79,NNE,22,3.0,12.0,58,0.00,,,0.02,,2013-06-04 02:32:00,
2013-06-03 18:42:00,57.0,42.0,29.79,NNE,22,3.0,12.0,58,0.00,,,0.02,,2013-06-04 02:42:00,
2013-06-03 18:52:00,57.0,43.0,29.78,ENE,67,3.0,9.0,60,0.00,,,0.02,,2013-06-04 02:52:00,
2013-06-03 19:02:00,58.0,44.0,29.77,NE,37,5.0,12.0,60,0.00,,,0.02,,2013-06-04 03:02:00,
2013-06-03 19:11:00,58.0,44.0,29.77,NE,37,5.0,12.0,60,0.00,,,0.02,,2013-06-04 03:11:00,
2013-06-03 19:22:00,57.0,44.0,29.77,East,88,3.0,10.0,62,0.00,,,0.02,,2013-06-04 03:22:00,
2013-06-03 19:32:00,57.0,44.0,29.77,NE,49,4.0,7.0,62,0.00,,,0.02,,2013-06-04 03:32:00,
2013-06-03 19:43:00,57.0,44.0,29.77,NE,49,4.0,7.0,62,0.00,,,0.02,,2013-06-04 03:43:00,
2013-06-03 19:53:00,57.0,45.0,29.76,NE,46,1.0,9.0,63,0.00,,,0.02,,2013-06-04 03:53:00,
2013-06-03 20:02:00,57.0,45.0,29.76,NE,45,2.0,8.0,63,0.00,,,0.02,,2013-06-04 04:02:00,
2013-06-03 20:13:00,57.0,45.0,29.76,NE,45,2.0,8.0,63,0.00,,,0.02,,2013-06-04 04:13:00,
2013-06-03 20:23:00,57.0,44.0,29.76,ESE,104,2.0,7.0,62,0.00,,,0.02,,2013-06-04 04:23:00,
2013-06-03 20:33:00,57.0,44.0,29.76,East,88,1.0,3.0,62,0.00,,,0.02,,2013-06-04 04:33:00,
2013-06-03 20:42:00,57.0,44.0,29.76,East,88,1.0,3.0,62,0.00,,,0.02,,2013-06-04 04:42:00,
2013-06-03 20:53:00,57.0,44.0,29.75,ESE,111,1.0,3.0,61,0.00,,,0.02,,2013-06-04 04:53:00,
2013-06-03 21:02:00,57.0,44.0,29.75,ESE,115,1.0,6.0,61,0.00,,,0.02,,2013-06-04 05:02:00,
2013-06-03 21:12:00,57.0,44.0,29.75,ESE,115,1.0,6.0,61,0.00,,,0.02,,2013-06-04 05:12:00,
2013-06-03 21:22:00,56.0,41.0,29.75,ESE,106,2.0,6.0,58,0.00,,,0.02,,2013-06-04 05:22:00,
2013-06-03 21:32:00,56.0,42.0,29.75,ESE,113,2.0,7.0,59,0.00,,,0.02,,2013-06-04 05:32:00,
2013-06-03 21:42:00,56.0,42.0,29.75,ESE,113,2.0,7.0,59,0.00,,,0.02,,2013-06-04 05:42:00,
2013-06-03 21:52:00,56.0,42.0,29.75,ESE,112,2.0,7.0,59,0.00,,,0.02,,2013-06-04 05:52:00,
2013-06-03 22:02:00,55.0,41.0,29.75,ESE,120,3.0,7.0,60,0.00,,,0.02,,2013-06-04 06:02:00,
2013-06-03 22:12:00,55.0,41.0,29.75,ESE,120,3.0,7.0,60,0.00,,,0.02,,2013-06-04 06:12:00,
2013-06-03 22:22:00,55.0,41.0,29.75,ESE,113,0.0,5.0,60,0.00,,,0.02,,2013-06-04 06:22:00,
2013-06-03 22:32:00,54.0,41.0,29.75,ESE,112,2.0,7.0,62,0.00,,,0.02,,2013-06-04 06:32:00,
2013-06-03 22:42:00,54.0,41.0,29.75,ESE,112,2.0,7.0,62,0.00,,,0.02,,2013-06-04 06:42:00,
2013-06-03 22:52:00,54.0,41.0,29.74,ESE,111,2.0,3.0,62,0.00,,,0.02,,2013-06-04 06:52:00,
2013-06-03 23:02:00,53.0,40.0,29.74,ESE,117,1.0,5.0,62,0.00,,,0.02,,2013-06-04 07:02:00,
2013-06-03 23:12:00,53.0,40.0,29.74,ESE,117,1.0,5.0,62,0.00,,,0.02,,2013-06-04 07:12:00,
2013-06-03 23:22:00,53.0,41.0,29.74,East,96,2.0,5.0,64,0.00,,,0.02,,2013-06-04 07:22:00,
2013-06-03 23:32:00,52.0,41.0,29.74,ESE,109,0.0,2.0,67,0.00,,,0.02,,2013-06-04 07:32:00,
2013-06-03 23:42:00,52.0,41.0,29.74,ESE,109,0.0,2.0,67,0.00,,,0.02,,2013-06-04 07:42:00,
2013-06-03 23:52:00,52.0,42.0,29.73,ESE,109,0.0,1.0,69,0.00,,,0.02,,2013-06-04 07:52:00,